Lid_Strength_Index
2 1 2 1 0 1 1 1 1 1 1 1 2 1 1 0 0 -0 -1 -1 -1 -1 -1 -0 -0 -1 -0 -0 -0 -0 0 -0 -1 1 1 0 -0 -0 0 -0 0 1 1
3 2 1 1 1 1 1 2 1 1 1 1 1 1 1 0 -0 -0 -1 -1 -1 -1 -1 -1 -0 -1 -0 -0 -0 -0 0 -0 0 2 2 4 2 1 1 1 1 1 1
4 3 2 1 1 1 1 2 1 1 1 0 1 1 0 0 1 0 0 -0 -1 -1 -1 -1 -1 -1 -1 0 -0 0 0 1 1 2 2 4 4 2 1 1 2 0 1
3 3 2 2 1 1 1 1 1 1 1 0 1 1 2 2 1 1 0 -0 -1 -1 -1 -1 -1 -1 -0 -0 0 -1 -1 0 1 2 2 1 2 4 4 2 1 0 -0
3 3 2 2 1 1 1 1 1 1 1 1 1 1 1 1 1 1 1 0 -1 -1 -1 -1 -1 -0 -0 -1 -0 1 1 1 1 2 2 1 1 2 4 5 2 1 1
3 3 2 1 1 1 1 1 1 1 1 1 1 1 1 1 1 1 1 1 0 0 -1 -1 -1 -1 -1 0 1 1 2 2 2 3 2 3 4 4 4 4 3 3 3
3 3 3 2 2 1 1 2 2 2 2 1 1 1 1 1 1 1 1 1 1 1 0 -0 -0 0 1 2 3 2 2 2 3 2 3 3 4 4 5 5 4 5 5
3 3 2 2 2 1 1 2 2 2 2 1 1 1 0 1 1 1 1 1 1 1 -0 -0 0 1 2 3 4 3 3 3 3 3 4 5 5 5 5 4 6 7 6
3 3 2 2 2 1 2 2 2 2 2 1 1 1 1 1 1 0 0 1 0 0 -0 1 2 2 4 3 4 4 3 4 4 4 4 5 6 6 4 4 5 7 8
4 3 2 2 1 1 1 2 2 2 2 1 1 1 1 0 1 1 1 1 0 -0 2 2 3 3 4 5 4 5 5 4 5 5 5 6 6 4 4 5 5 5 6
4 3 2 2 1 1 2 2 2 2 2 2 1 1 1 1 1 1 1 1 0 2 3 3 5 5 5 5 5 5 6 6 6 6 7 6 6 5 5 5 5 5 5
4 3 2 2 2 2 3 3 3 3 2 1 2 2 1 1 1 1 1 2 3 4 5 5 6 7 6 6 6 7 7 8 7 7 7 6 5 4 4 5 5 5 4
4 3 2 3 3 3 3 3 3 3 2 2 2 3 3 3 3 4 5 5 7 6 7 7 6 7 7 8 8 9 9 8 9 9 8 5 5 5 5 5 5 5 4
6 4 3 3 3 3 4 3 3 2 2 2 2 4 4 5 5 6 7 8 7 7 8 8 8 8 9 9 10 9 9 8 9 8 6 6 7 7 6 6 5 5 5
6 6 5 4 3 3 3 3 3 2 2 2 4 5 6 6 6 7 8 8 9 9 8 9 9 9 10 10 10 9 9 9 10 7 7 8 8 9 9 8 6 6 6
6 6 5 4 4 3 3 3 3 3 3 5 7 7 8 8 9 9 9 9 9 9 10 10 10 10 10 12 11 10 9 9 7 8 8 7 8 8 7 9 9 8 8
6 6 5 5 4 4 3 4 5 4 6 7 7 7 8 10 10 10 10 10 10 9 10 10 11 11 11 12 12 11 9 9 8 8 9 8 8 8 7 6 6 7 9
6 6 5 4 4 5 6 6 7 6 8 8 9 9 10 11 10 10 11 11 9 9 10 10 11 12 13 13 12 11 8 9 8 8 8 8 8 9 9 7 6 5 5
6 6 4 4 4 4 5 6 7 7 8 9 9 10 10 11 12 12 11 10 9 10 10 10 11 12 12 13 11 8 8 9 8 9 10 9 8 12 11 7 7 6 5
7 6 6 4 4 6 6 7 8 8 9 9 9 9 10 11 12 12 11 11 10 10 10 10 10 12 11 12 11 9 8 8 9 8 8 12 11 12 12 8 8 8 8
7 7 7 6 6 5 6 8 9 10 10 11 12 12 12 12 12 12 11 11 10 10 9 11 10 10 11 12 13 12 8 9 10 9 9 10 12 12 12 11 9 10 10
6 7 8 8 7 6 8 10 11 11 11 11 12 12 12 12 12 13 12 12 11 11 10 11 12 11 11 11 12 12 11 9 9 9 9 10 12 12 12 10 12 11 10
8 7 7 8 8 8 9 11 11 11 12 12 12 13 12 12 12 12 11 10 10 12 12 12 11 11 10 11 12 12 11 11 10 10 12 12 12 11 10 11 11 9 8
9 8 8 8 8 9 10 11 11 12 14 14 14 13 13 13 12 11 11 11 11 11 11 11 11 10 10 9 9 10 10 12 9 11 9 10 11 11 10 8 8 8 8
9 9 10 10 9 9 9 10 11 12 13 13 14 13 13 12 11 10 10 10 9 10 10 10 10 10 10 11 13 11 10 10 12 10 8 9 9 9 8 8 8 8 7
9 10 10 11 10 10 10 10 10 12 13 13 13 14 13 12 12 11 11 13 13 13 13 12 11 12 13 14 13 13 13 14 13 10 10 10 9 9 9 9 9 8 8